Location: Baix
(44.7118°N, 4.7648°E)
Time: 09:37:54
(UTC+00:00)

Vanguard 2 Rocket - Pass Details

Date: 28 November 2020
Orbit: 554 x 3325 km, 32.9° (Epoch: 21 January)

Event Time Altitude Azimuth Distance (km) Brightness Sun altitude
Rises 14:09:15 0° 275° (W) 6,357 11.7 14.4°
Reaches altitude 10° 14:15:58 10° 259° (W) 4,752 11.5 13.7°
Maximum altitude 14:22:46 17° 227° (SW) 3,538 12.8 12.9°
Drops below altitude 10° 14:27:57 10° 191° (S) 3,448 11.1 12.3°
Sets 14:31:40 0° 170° (S) 3,977 10.8 11.8°
